DW0805 Ramloese DK current weather conditions

sailwx.info

Wind from 081 at 8 knots gusting 13

Air temperature 19.4° C
Dewpoint 12.4° C

Last reported at 2014-Sep-01 12:55 UTC.
Time now 2014-Sep-01 13:51 UTC

Location: N 56°01' E 012°05'.
View on Google Maps.

See reports from other nearby stations

  
Tides and Currents Weather Stations Pressure Air Temp Water Temp Dewpoint Dewpoint Depression Visibility Wind Speed Wind Dir Waves Ship Positions
date/time (UTC)wind fromknots sea level pressurealtimeterstation pressurevisibilityair tempwater tempwave heightnotes
2014-Sep-01 12:55 081 8 gusting 13 19.4
2014-Sep-01 12:46 073 6 gusting 13 20.0
2014-Sep-01 12:36 077 7 gusting 13 20.0
2014-Sep-01 12:26 075 7 gusting 14 20.0
2014-Sep-01 12:16 073 8 gusting 13 19.4
2014-Sep-01 12:06 050 6 gusting 15 19.4
2014-Sep-01 11:55 075 8 gusting 15 18.9
2014-Sep-01 11:46 063 8 gusting 13 19.4
2014-Sep-01 11:36 073 12 gusting 15 20.0
2014-Sep-01 11:26 067 8 gusting 13 19.4
2014-Sep-01 11:16 067 8 gusting 15 18.9
2014-Sep-01 11:06 088 7 gusting 14 18.9
2014-Sep-01 10:56 082 10 gusting 15 18.9
2014-Sep-01 10:46 069 8 gusting 15 18.9
2014-Sep-01 10:36 066 9 gusting 15 18.3
2014-Sep-01 10:26 072 9 gusting 15 18.3
2014-Sep-01 10:16 067 6 gusting 13 19.4
2014-Sep-01 10:06 087 10 gusting 15 18.3
2014-Sep-01 09:56 075 8 gusting 15 18.9
2014-Sep-01 09:46 048 10 gusting 17 18.3
2014-Sep-01 09:35 080 7 gusting 15 18.9
2014-Sep-01 09:26 062 8 gusting 15 18.3
2014-Sep-01 09:15 070 9 gusting 14 17.8
2014-Sep-01 09:06 072 7 gusting 15 18.3
2014-Sep-01 08:56 086 6 gusting 13 17.8
2014-Sep-01 08:46 046 7 gusting 14 17.8
2014-Sep-01 08:35 054 10 gusting 13 17.2
2014-Sep-01 08:25 049 10 gusting 14 17.2
2014-Sep-01 08:16 052 7 gusting 13 16.7
2014-Sep-01 08:06 082 7 gusting 15 16.7
2014-Sep-01 07:56 060 6 gusting 13 16.7
2014-Sep-01 07:46 066 5 gusting 13 16.7
2014-Sep-01 07:36 061 8 gusting 13 16.7
2014-Sep-01 07:26 056 7 gusting 13 16.1
2014-Sep-01 07:16 040 5 gusting 10 16.1
2014-Sep-01 07:06 064 5 gusting 11 15.6
2014-Sep-01 06:56 034 6 gusting 12 15.6
2014-Sep-01 06:46 057 3 gusting 10 15.6
2014-Sep-01 06:36 046 5 gusting 10 15.0
2014-Sep-01 06:26 058 5 gusting 8 15.0
2014-Sep-01 06:16 053 3 gusting 7 14.4
2014-Sep-01 06:06 033 5 gusting 11 15.0
2014-Sep-01 05:56 020 4 gusting 8 14.4
2014-Sep-01 05:45 026 4 gusting 8 14.4
2014-Sep-01 05:35 032 6 gusting 8 13.9
2014-Sep-01 05:25 027 5 gusting 8 13.9
2014-Sep-01 05:15 030 6 gusting 10 13.3
2014-Sep-01 05:06 038 5 gusting 8 13.3
2014-Sep-01 04:55 014 5 gusting 8 13.3
2014-Sep-01 04:45 018 6 gusting 11 12.8
2014-Sep-01 04:36 029 5 gusting 10 12.8
2014-Sep-01 04:26 031 6 gusting 8 12.8
2014-Sep-01 04:16 024 6 gusting 11 12.8
2014-Sep-01 04:06 026 6 gusting 10 12.8
2014-Sep-01 03:55 023 6 gusting 10 12.8
2014-Sep-01 03:46 027 5 gusting 10 12.8
2014-Sep-01 03:35 028 6 gusting 11 12.8
2014-Sep-01 03:25 033 6 gusting 11 12.8
2014-Sep-01 03:16 026 6 gusting 10 12.8
2014-Sep-01 03:05 013 4 gusting 6 12.8
2014-Sep-01 02:55 033 4 gusting 8 12.8
2014-Sep-01 02:45 025 4 gusting 11 12.8
2014-Sep-01 02:35 015 5 gusting 7 12.8
2014-Sep-01 02:25 010 3 gusting 8 12.8
2014-Sep-01 02:16 026 2 gusting 6 12.8
2014-Sep-01 02:05 006 1 gusting 5 12.8
2014-Sep-01 01:55 016 1 gusting 6 12.8
2014-Sep-01 01:45 008 2 gusting 6 13.3
2014-Sep-01 01:35 353 1 gusting 5 13.3
2014-Sep-01 01:25 023 4 gusting 8 13.3
2014-Sep-01 01:15 031 6 gusting 10 13.3
2014-Sep-01 01:06 036 5 gusting 7 13.3
2014-Sep-01 00:55 026 4 gusting 7 13.3
2014-Sep-01 00:46 023 4 gusting 8 13.3
2014-Sep-01 00:35 012 1 gusting 5 13.3
2014-Sep-01 00:25 019 2 gusting 6 13.3
2014-Sep-01 00:15 022 2 gusting 6 13.3
2014-Sep-01 00:05 019 4 gusting 7 13.3
2014-Aug-31 23:56 017 2 gusting 6 13.3
2014-Aug-31 23:45 026 2 gusting 6 13.3
2014-Aug-31 23:35 019 2 gusting 7 13.3
2014-Aug-31 23:25 018 4 gusting 11 13.3
2014-Aug-31 23:15 011 3 gusting 11 13.3
2014-Aug-31 23:05 025 5 gusting 8 13.3
2014-Aug-31 22:55 028 6 gusting 8 13.3
2014-Aug-31 22:46 034 4 gusting 6 13.3
2014-Aug-31 22:35 033 3 gusting 6 13.3
2014-Aug-31 22:25 022 2 gusting 6 13.3
2014-Aug-31 22:15 018 4 gusting 7 13.3
2014-Aug-31 22:05 028 4 gusting 7 13.3
2014-Aug-31 21:55 021 5 gusting 7 13.3
2014-Aug-31 21:45 018 5 gusting 8 13.3
2014-Aug-31 21:36 027 5 gusting 11 13.3
2014-Aug-31 21:26 030 7 gusting 12 13.3
2014-Aug-31 21:16 022 6 gusting 13 13.9
2014-Aug-31 21:05 020 6 gusting 11 13.9
2014-Aug-31 20:56 018 7 gusting 12 13.9
2014-Aug-31 20:45 033 6 gusting 12 13.9
2014-Aug-31 20:35 023 6 gusting 11 13.9
2014-Aug-31 20:26 042 4 gusting 10 13.9
2014-Aug-31 20:16 038 8 gusting 13 13.9
2014-Aug-31 20:06 027 6 gusting 13 13.9
2014-Aug-31 19:55 035 7 gusting 14 13.9
2014-Aug-31 19:46 029 8 gusting 13 13.9
2014-Aug-31 19:35 037 7 gusting 13 13.9
2014-Aug-31 19:25 027 8 gusting 14 13.9
2014-Aug-31 19:15 025 8 gusting 12 13.9
2014-Aug-31 19:05 021 8 gusting 11 13.9
2014-Aug-31 18:55 027 7 gusting 14 13.9
2014-Aug-31 18:46 032 8 gusting 13 13.9
2014-Aug-31 18:35 028 8 gusting 15 13.9
2014-Aug-31 18:26 022 8 gusting 14 14.4
2014-Aug-31 18:16 016 6 gusting 10 14.4
2014-Aug-31 18:05 015 7 gusting 11 14.4
2014-Aug-31 17:56 025 7 gusting 13 14.4
2014-Aug-31 17:45 030 6 gusting 12 14.4
2014-Aug-31 17:35 026 7 gusting 13 14.4
2014-Aug-31 17:26 036 6 gusting 14 14.4
2014-Aug-31 17:16 036 6 gusting 13 15.0
2014-Aug-31 17:06 010 8 gusting 13 15.0
2014-Aug-31 16:55 025 7 gusting 12 15.0
2014-Aug-31 16:46 024 6 gusting 15 15.0
2014-Aug-31 16:35 030 9 gusting 13 15.0
2014-Aug-31 16:25 019 8 gusting 13 15.0
2014-Aug-31 16:15 036 9 gusting 14 15.0
2014-Aug-31 16:06 030 10 gusting 13 15.0
2014-Aug-31 15:56 025 6 gusting 11 15.0
2014-Aug-31 15:46 011 7 gusting 13 15.6
2014-Aug-31 15:36 020 7 gusting 12 15.6
2014-Aug-31 15:26 033 6 gusting 12 15.6
2014-Aug-31 15:15 022 7 gusting 12 15.6
2014-Aug-31 15:05 026 7 gusting 13 15.0
2014-Aug-31 14:56 011 6 gusting 10 15.0
2014-Aug-31 14:46 020 4 gusting 10 15.6
2014-Aug-31 14:36 037 5 gusting 10 15.6
2014-Aug-31 14:25 034 5 gusting 8 15.6
2014-Aug-31 14:16 025 6 gusting 13 15.0
2014-Aug-31 14:06 052 6 gusting 11 15.6
2014-Aug-31 13:56 031 6 gusting 12 15.6
2014-Aug-31 13:46 035 3 gusting 7 15.6
2014-Aug-31 13:36 050 5 gusting 11 15.6
2014-Aug-31 13:26 023 4 gusting 8 15.0
2014-Aug-31 13:15 027 5 gusting 7 15.0
2014-Aug-31 13:06 038 5 gusting 7 14.4
2014-Aug-31 12:55 039 5 gusting 6 14.4
2014-Aug-31 12:45 025 3 gusting 7 14.4
2014-Aug-31 12:35 026 3 gusting 10 14.4
2014-Aug-31 12:25 046 6 gusting 11 14.4
2014-Aug-31 12:15 045 8 gusting 13 14.4
2014-Aug-31 12:06 058 7 gusting 13 14.4
2014-Aug-31 11:56 053 7 gusting 15 14.4
2014-Aug-31 11:45 048 6 gusting 14 14.4
2014-Aug-31 11:35 061 6 gusting 10 14.4
2014-Aug-31 11:26 021 6 gusting 13 14.4
2014-Aug-31 11:16 055 7 gusting 11 13.9
2014-Aug-31 11:06 052 6 gusting 10 14.4
2014-Aug-31 10:55 068 7 gusting 14 15.0
2014-Aug-31 10:46 053 6 gusting 11 15.6
2014-Aug-31 10:35 064 7 gusting 14 15.6
2014-Aug-31 10:26 044 6 gusting 14 16.1
2014-Aug-31 10:16 058 8 gusting 14 16.1
2014-Aug-31 10:06 044 7 gusting 13 16.1
2014-Aug-31 09:55 052 8 gusting 13 16.1
2014-Aug-31 09:45 056 6 gusting 11 16.1
2014-Aug-31 09:36 067 7 gusting 12 15.6
2014-Aug-31 09:25 031 7 gusting 14 15.6
2014-Aug-31 09:16 047 7 gusting 11 16.1
2014-Aug-31 09:06 054 6 gusting 12 16.1
2014-Aug-31 08:55 052 6 gusting 12 15.6
2014-Aug-31 08:45 062 8 gusting 13 16.1
2014-Aug-31 08:35 069 8 gusting 13 16.1
2014-Aug-31 08:26 061 5 gusting 12 15.6
2014-Aug-31 08:16 037 6 gusting 12 15.6
2014-Aug-31 08:06 069 4 gusting 13 15.6
2014-Aug-31 07:55 056 8 gusting 15 15.0
2014-Aug-31 07:46 073 5 gusting 11 15.0
2014-Aug-31 07:35 041 3 gusting 8 15.0
2014-Aug-31 07:25 047 5 gusting 11 14.4
2014-Aug-31 07:15 029 4 gusting 10 14.4
2014-Aug-31 07:06 024 5 gusting 10 14.4
2014-Aug-31 06:56 037 6 gusting 13 14.4
2014-Aug-31 06:46 039 6 gusting 12 14.4
2014-Aug-31 06:36 041 6 gusting 11 14.4
2014-Aug-31 06:26 032 5 gusting 11 14.4
2014-Aug-31 06:16 067 4 gusting 11 14.4
2014-Aug-31 06:05 049 2 gusting 6 14.4
2014-Aug-31 05:55 053 2 gusting 7 14.4
2014-Aug-31 05:46 044 5 gusting 10 14.4
2014-Aug-31 05:36 047 6 gusting 10 14.4
2014-Aug-31 05:26 061 7 gusting 11 14.4
2014-Aug-31 05:15 044 4 gusting 8 14.4
2014-Aug-31 05:05 043 3 gusting 8 14.4
2014-Aug-31 04:56 067 3 gusting 6 14.4
2014-Aug-31 04:46 060 4 gusting 8 14.4
2014-Aug-31 04:35 077 4 gusting 6 14.4
2014-Aug-31 04:25 074 3 gusting 7 14.4
2014-Aug-31 04:15 076 2 gusting 6 14.4
2014-Aug-31 04:05 080 3 gusting 6 14.4
2014-Aug-31 03:55 066 3 gusting 8 14.4
2014-Aug-31 03:46 071 4 gusting 11 14.4
2014-Aug-31 03:36 061 4 gusting 11 14.4
2014-Aug-31 03:26 072 6 gusting 11 14.4
2014-Aug-31 03:15 055 5 gusting 12 14.4
2014-Aug-31 03:05 075 7 gusting 11 14.4
2014-Aug-31 02:55 045 6 gusting 11 14.4
2014-Aug-31 02:46 078 6 gusting 11 14.4
2014-Aug-31 02:35 064 6 gusting 12 14.4
2014-Aug-31 02:26 065 4 gusting 8 14.4
2014-Aug-31 02:15 043 6 gusting 10 14.4
2014-Aug-31 02:05 073 2 gusting 8 14.4
2014-Aug-31 01:55 050 1 gusting 7 14.4
2014-Aug-31 01:46 047 2 gusting 8 14.4
2014-Aug-31 01:35 050 3 gusting 7 14.4
2014-Aug-31 01:25 051 3 gusting 6 14.4
2014-Aug-31 01:15 063 2 gusting 5 14.4
2014-Aug-31 01:05 071 1 gusting 4 14.4
2014-Aug-31 00:56 073 2 gusting 5 14.4
2014-Aug-31 00:45 073 2 gusting 5 14.4
2014-Aug-31 00:35 076 13.9
2014-Aug-31 00:25 076 0 gusting 4 13.9
2014-Aug-31 00:15 076 1 gusting 5 14.4
2014-Aug-31 00:05 076 1 gusting 5 14.4
2014-Aug-30 23:55 084 3 gusting 6 14.4
2014-Aug-30 23:45 089 3 gusting 7 14.4
2014-Aug-30 23:35 094 4 gusting 6 15.0
2014-Aug-30 23:25 082 2 gusting 6 15.0
2014-Aug-30 23:15 092 5 gusting 7 15.0
2014-Aug-30 23:05 089 2 gusting 8 15.0
2014-Aug-30 22:55 105 4 gusting 6 15.0
2014-Aug-30 22:45 092 4 gusting 11 15.0
2014-Aug-30 22:35 079 5 gusting 8 15.0
2014-Aug-30 22:25 082 5 gusting 11 15.0
2014-Aug-30 22:15 084 6 gusting 13 15.0
2014-Aug-30 22:05 094 6 gusting 12 15.0
2014-Aug-30 21:55 088 6 gusting 11 15.0
2014-Aug-30 21:46 070 6 gusting 10 15.0
2014-Aug-30 21:35 090 6 gusting 11 15.0
2014-Aug-30 21:25 084 6 gusting 10 15.0
2014-Aug-30 21:15 090 6 gusting 7 15.0
2014-Aug-30 21:05 098 4 gusting 8 15.0
2014-Aug-30 20:55 085 5 gusting 8 15.0
2014-Aug-30 20:45 102 4 gusting 7 15.0
2014-Aug-30 20:35 092 4 gusting 7 15.0
2014-Aug-30 20:25 075 4 gusting 7 15.0
2014-Aug-30 20:15 111 2 gusting 11 15.0
2014-Aug-30 20:05 087 5 gusting 8 15.0
2014-Aug-30 19:55 090 6 gusting 12 15.0
2014-Aug-30 19:45 099 5 gusting 11 15.0
2014-Aug-30 19:35 089 5 gusting 10 15.0
2014-Aug-30 19:25 092 6 gusting 11 15.0
2014-Aug-30 19:15 083 6 gusting 11 15.0
2014-Aug-30 19:05 092 6 gusting 10 15.0
2014-Aug-30 18:55 120 3 gusting 8 15.0
2014-Aug-30 18:45 107 5 gusting 10 15.6
2014-Aug-30 18:35 102 4 gusting 7 15.6
2014-Aug-30 18:25 101 4 gusting 8 15.0
2014-Aug-30 18:16 099 5 gusting 11 15.6
2014-Aug-30 18:06 123 1 gusting 7 15.6
2014-Aug-30 17:55 118 2 gusting 7 15.6
2014-Aug-30 17:45 133 0 gusting 6 15.6
2014-Aug-30 17:35 106 2 gusting 7 15.0
2014-Aug-30 17:26 096 2 gusting 5 15.6
2014-Aug-30 17:15 097 2 gusting 6 15.6
2014-Aug-30 17:05 107 3 gusting 6 15.6
2014-Aug-30 16:55 101 4 gusting 6 15.6
2014-Aug-30 16:45 125 1 gusting 7 15.6
2014-Aug-30 16:35 137 4 gusting 8 15.6
2014-Aug-30 16:25 133 5 gusting 11 15.6
2014-Aug-30 16:15 128 3 gusting 10 15.6
2014-Aug-30 16:05 218 4 gusting 7 15.6
2014-Aug-30 15:55 134 4 gusting 10 15.6
2014-Aug-30 15:45 109 4 gusting 13 15.6
2014-Aug-30 15:35 089 4 gusting 10 15.6
2014-Aug-30 15:26 084 6 gusting 10 16.1
2014-Aug-30 15:15 094 3 gusting 7 16.1
2014-Aug-30 15:06 234 4 gusting 10 16.1
2014-Aug-30 14:55 081 5 gusting 8 16.7
2014-Aug-30 14:45 105 6 gusting 12 16.7
2014-Aug-30 14:35 090 6 gusting 13 17.2
2014-Aug-30 14:25 117 6 gusting 12 17.2
2014-Aug-30 14:15 097 5 gusting 10 17.2
2014-Aug-30 14:05 093 5 gusting 10 17.2
2014-Aug-30 13:55 099 6 gusting 14 17.2
2014-Aug-30 13:45 093 6 gusting 12 17.2
2014-Aug-30 13:35 104 6 gusting 11 17.8
2014-Aug-30 13:26 096 6 gusting 11 17.8
2014-Aug-30 13:16 083 4 gusting 13 17.8
2014-Aug-30 13:05 101 6 gusting 12 17.2